Location: Sandbach
(53.1410°N, 2.3660°W)
Time: 05:09:40
(UTC+01:00)

N. Korean satellite - Visible Passes

Search period start: 25 September 2022 00:00
Search period end: 05 October 2022 00:00
Orbit: 428 x 468 km, 97.3° (Epoch: 24 September)

Date Brightness Start Highest point End Pass type
(mag) Time Alt. Az. Time Alt. Az. Time Alt. Az.
25 Sep 7.5 06:18:59 10° NNE 06:22:12 47° E 06:25:23 10° S visible
26 Sep 9.4 05:43:56 10° NE 05:46:25 19° E 05:48:52 10° SE visible
28 Sep 8.4 06:04:57 10° NNE 06:07:58 32° E 06:10:57 10° SSE visible
29 Sep 9.7 05:30:13 10° ENE 05:32:00 14° E 05:33:47 10° ESE visible
30 Sep 7.1 06:26:03 10° NNE 06:29:20 58° ESE 06:32:33 10° S visible
01 Oct 9.1 05:50:43 10° NE 05:53:24 23° E 05:56:04 10° SSE visible
03 Oct 8.0 06:11:29 10° NNE 06:14:36 38° E 06:17:41 10° S visible
04 Oct 9.6 05:36:22 10° NE 05:38:30 16° E 05:40:37 10° SE visible
